Hourly Data Report for September 01, 2017

All times are specified in Local Standard Time (LST). Add 1 hour to adjust for Daylight Saving Time where and when it is observed.

PORT ALBERNI (AUT)
BRITISH COLUMBIA

49°18'59.700" N
124°55'36.600" W
76.20 m
1036B06
71475
WQC

Download Data

Hourly Data (September 2017)
Hourly Data Report for September 1, 2017
Temp Definition
°C
Dew Point Temp Definition
°C
Rel Hum Definition
%
Wind Dir Definition
10's deg

Wind Spd Definition
km/h
Visibility Definition
km
Stn Press Definition
kPa
Hmdx Definition


Wind Chill Definition


Weather Definition


TIME
00:00 11.8 10.2 90 33 17   101.19     LegendNANA
01:00 11.2 9.8 91 27 4   101.20     LegendNANA
02:00 10.5 9.6 94 25 6   101.21     LegendNANA
03:00 9.9 9.1 95 3 17   101.22     LegendNANA
04:00 11.0 10.5 97 31 4   101.25     LegendNANA
05:00 10.1 9.4 95 34 6   101.23     LegendNANA
06:00 9.7 8.8 94 31 3   101.31     LegendNANA
07:00 12.2 10.7 91 6 13   101.33     LegendNANA
08:00 14.8 12.1 84 8 5   101.35     LegendNANA
09:00 17.2 11.9 71 2 2   101.34     LegendNANA
10:00 20.3 12.2 60 36 2   101.26     LegendNANA
11:00 22.2 10.8 49 36 4   101.17     LegendNANA
12:00 24.8 5.9 30 7 3   101.13     LegendNANA
13:00 26.6 7.8 30 36 6   101.06 27   LegendNANA
14:00 28.7 7.1 26 5 5   100.99 29   LegendNANA
15:00 28.9 6.7 25 12 7   100.92 29   LegendNANA
16:00 29.5 7.6 25 13 6   100.83 30   LegendNANA
17:00 29.4 9.1 28 18 7   100.79 30   LegendNANA
18:00 27.3 11.1 36 22 6   100.79 29   LegendNANA
19:00 23.4 12.4 50 12 14   100.80 26   LegendNANA
20:00 21.6 12.4 56 12 9   100.87     LegendNANA
21:00 19.7 12.7 64 15 6   100.90     LegendNANA
22:00 18.1 12.4 69 5 3   100.89     LegendNANA
23:00 15.7 12.0 79 32 3   100.89     LegendNANA

Notes on Data Quality.

Legend

  • E = Estimated
  • M = Missing
  • NA = Not Available
  • ‡ = Partner data that is not subject to review by the National Climate Archives
Date modified: